| time (UTC) | temp C | wind direction | speed KPH | gust KPH | rain 1hr cm | rain 24hr cm | rain mn cm | humidity % | barometer mb |
| 20260905084504 | 12 | 245 | 0.0 | 0.0 | 0.00 | 0.71 | 0.00 | 95 | 1017.2 |
| 20260905083009 | 12 | 245 | 0.0 | 0.0 | 0.00 | 0.71 | 0.00 | 95 | 1017.1 |
| 20260905081516 | 12 | 242 | 0.0 | 0.0 | 0.00 | 0.71 | 0.00 | 95 | 1017.1 |
| 20260905080028 | 12 | 244 | 0.0 | 0.0 | 0.00 | 0.71 | 0.00 | 95 | 1017.1 |
| 20260905074504 | 12 | 260 | 0.0 | 0.0 | 0.00 | 0.71 | 0.00 | 95 | 1017.0 |
| 20260905073004 | 12 | 239 | 0.0 | 0.0 | 0.00 | 0.71 | 0.00 | 95 | 1016.9 |
| 20260905071513 | 12 | 242 | 0.0 | 1.6 | 0.00 | 0.71 | 0.00 | 95 | 1016.8 |
| 20260905070036 | 12 | 245 | 0.0 | 0.0 | 0.00 | 0.71 | 0.00 | 95 | 1016.7 |
| 20260905064537 | 12 | 257 | 0.0 | 0.0 | 0.00 | 0.71 | 0.71 | 95 | 1016.6 |
| 20260905063008 | 12 | 257 | 0.0 | 0.0 | 0.00 | 0.71 | 0.71 | 95 | 1016.5 |
| 20260905061508 | 12 | 242 | 0.0 | 0.0 | 0.00 | 0.71 | 0.71 | 95 | 1016.5 |
| 20260905060020 | 12 | 246 | 0.0 | 0.0 | 0.00 | 0.71 | 0.71 | 95 | 1016.5 |
| 20260905054534 | 12 | 242 | 0.0 | 0.0 | 0.00 | 0.71 | 0.71 | 95 | 1016.4 |
| 20260905053006 | 12 | 248 | 0.0 | 0.0 | 0.00 | 0.71 | 0.71 | 95 | 1016.4 |
| 20260905051516 | 12 | 240 | 0.0 | 0.0 | 0.00 | 0.71 | 0.71 | 95 | 1016.4 |
| 20260905050012 | 12 | 240 | 0.0 | 3.2 | 0.00 | 0.71 | 0.71 | 95 | 1016.4 |
| 20260905044518 | 12 | 230 | 0.0 | 4.8 | 0.00 | 0.71 | 0.71 | 95 | 1016.4 |
| 20260905043033 | 12 | 238 | 1.6 | 4.8 | 0.00 | 0.71 | 0.71 | 94 | 1016.3 |
| 20260905041511 | 12 | 236 | 0.0 | 0.0 | 0.00 | 0.71 | 0.71 | 94 | 1016.2 |
| 20260905040021 | 12 | 217 | 0.0 | 0.0 | 0.00 | 0.71 | 0.71 | 93 | 1016.0 |
| 20260905034527 | 13 | 217 | 0.0 | 0.0 | 0.00 | 0.71 | 0.71 | 93 | 1015.8 |
| 20260905033027 | 13 | 217 | 0.0 | 0.0 | 0.00 | 0.71 | 0.71 | 93 | 1015.8 |
| 20260905031532 | 13 | 191 | 0.0 | 0.0 | 0.00 | 0.71 | 0.71 | 93 | 1015.6 |
| 20260905030009 | 13 | 313 | 0.0 | 0.0 | 0.00 | 0.74 | 0.71 | 92 | 1015.5 |
| 20260905024512 | 13 | 245 | 0.0 | 3.2 | 0.00 | 0.74 | 0.71 | 92 | 1015.3 |
| 20260905023018 | 13 | 223 | 0.0 | 0.0 | 0.00 | 0.81 | 0.71 | 92 | 1015.3 |
| 20260905021536 | 14 | 224 | 0.0 | 3.2 | 0.00 | 0.89 | 0.71 | 90 | 1015.2 |
| 20260905020029 | 15 | 242 | 0.0 | 0.0 | 0.00 | 0.94 | 0.71 | 89 | 1015.1 |
| 20260905014516 | 15 | 242 | 0.0 | 0.0 | 0.00 | 1.02 | 0.71 | 87 | 1015.1 |
| 20260905013017 | 15 | 242 | 0.0 | 0.0 | 0.00 | 1.04 | 0.71 | 86 | 1015.1 |
| 20260905011521 | 15 | 313 | 0.0 | 3.2 | 0.00 | 1.04 | 0.71 | 82 | 1015.1 |
| 20260905010031 | 15 | 338 | 0.0 | 1.6 | 0.00 | 1.04 | 0.71 | 83 | 1014.9 |
| 20260905004510 | 16 | 298 | 0.0 | 3.2 | 0.00 | 1.07 | 0.71 | 81 | 1014.9 |
| 20260905003020 | 16 | 360 | 0.0 | 4.8 | 0.00 | 1.09 | 0.71 | 80 | 1014.8 |
| 20260905001521 | 16 | 9 | 1.6 | 4.8 | 0.00 | 1.09 | 0.71 | 82 | 1014.7 |
| 20260905000030 | 16 | 322 | 1.6 | 4.8 | 0.00 | 1.12 | 0.71 | 84 | 1014.5 |
| 20260904234531 | 16 | 304 | 0.0 | 6.4 | 0.00 | 1.14 | 0.71 | 83 | 1014.6 |
| 20260904233014 | 16 | 333 | 1.6 | 9.7 | 0.03 | 1.14 | 0.71 | 83 | 1014.4 |
| 20260904231518 | 16 | 340 | 4.8 | 9.7 | 0.03 | 1.14 | 0.71 | 84 | 1014.3 |
| 20260904230026 | 15 | 288 | 0.0 | 6.4 | 0.03 | 1.14 | 0.71 | 85 | 1014.3 |
| 20260904224528 | 15 | 273 | 0.0 | 4.8 | 0.08 | 1.14 | 0.71 | 89 | 1014.4 |
| 20260904223038 | 14 | 277 | 0.0 | 0.0 | 0.05 | 1.12 | 0.69 | 90 | 1014.4 |
| 20260904221533 | 14 | 229 | 0.0 | 3.2 | 0.05 | 1.12 | 0.69 | 91 | 1014.3 |
| 20260904220009 | 14 | 237 | 3.2 | 4.8 | 0.05 | 1.14 | 0.69 | 90 | 1014.3 |
| 20260904214512 | 14 | 170 | 0.0 | 0.0 | 0.00 | 1.09 | 0.64 | 89 | 1014.3 |
| 20260904213014 | 14 | 144 | 3.2 | 8.0 | 0.08 | 1.14 | 0.64 | 87 | 1014.1 |
| 20260904211513 | 14 | 219 | 0.0 | 6.4 | 0.10 | 1.17 | 0.64 | 89 | 1014.0 |
| 20260904210015 | 14 | 190 | 0.0 | 6.4 | 0.10 | 1.17 | 0.64 | 87 | 1013.9 |
| 20260904204513 | 15 | 143 | 1.6 | 9.7 | 0.10 | 1.19 | 0.64 | 84 | 1013.9 |
| 20260904203006 | 16 | 84 | 1.6 | 14.5 | 0.03 | 1.12 | 0.56 | 79 | 1013.7 |
| 20260904201518 | 17 | 33 | 0.0 | 9.7 | 0.00 | 1.09 | 0.53 | 74 | 1013.7 |
| 20260904200012 | 17 | 11 | 1.6 | 11.3 | 0.00 | 1.09 | 0.53 | 75 | 1013.6 |
| 20260904194520 | 16 | 329 | 3.2 | 8.0 | 0.00 | 1.17 | 0.53 | 81 | 1013.7 |
| 20260904193033 | 16 | 341 | 3.2 | 8.0 | 0.00 | 1.32 | 0.53 | 82 | 1013.7 |
| 20260904191511 | 16 | 265 | 3.2 | 11.3 | 0.00 | 1.42 | 0.53 | 82 | 1013.8 |
| 20260904190016 | 15 | 302 | 1.6 | 6.4 | 0.00 | 1.57 | 0.53 | 85 | 1013.9 |
| 20260904184517 | 15 | 283 | 1.6 | 6.4 | 0.05 | 1.63 | 0.53 | 86 | 1013.8 |
| 20260904183016 | 15 | 279 | 1.6 | 4.8 | 0.05 | 1.63 | 0.53 | 85 | 1013.7 |
| 20260904181515 | 15 | 261 | 0.0 | 8.0 | 0.05 | 1.63 | 0.53 | 91 | 1013.6 |
| 20260904180012 | 14 | 221 | 3.2 | 6.4 | 0.05 | 1.63 | 0.53 | 1013.5 | |
| 20260904174520 | 14 | 232 | 0.0 | 4.8 | 0.00 | 1.57 | 0.48 | 1013.6 | |
| 20260904173026 | 14 | 283 | 0.0 | 0.0 | 0.00 | 1.57 | 0.48 | 1013.5 | |
| 20260904171524 | 14 | 264 | 0.0 | 4.8 | 0.00 | 1.57 | 0.48 | 87 | 1013.5 |
| 20260904170021 | 14 | 341 | 0.0 | 3.2 | 0.00 | 1.57 | 0.48 | 89 | 1013.4 |
| 20260904164514 | 13 | 271 | 1.6 | 6.4 | 0.00 | 1.57 | 0.48 | 89 | 1013.1 |
| 20260904163023 | 13 | 342 | 3.2 | 6.4 | 0.00 | 1.57 | 0.48 | 90 | 1013.1 |
| 20260904161520 | 13 | 267 | 1.6 | 4.8 | 0.00 | 1.60 | 0.48 | 92 | 1013.0 |
| 20260904160022 | 12 | 277 | 0.0 | 0.0 | 0.00 | 1.68 | 0.48 | 94 | 1013.0 |
| 20260904154512 | 12 | 273 | 0.0 | 1.6 | 0.05 | 1.70 | 0.48 | 95 | 1013.0 |
| 20260904153023 | 12 | 251 | 0.0 | 0.0 | 0.08 | 1.73 | 0.48 | 95 | 1013.0 |
| 20260904151537 | 12 | 236 | 0.0 | 0.0 | 0.10 | 1.85 | 0.48 | 95 | 1012.9 |
| 20260904150033 | 12 | 250 | 0.0 | 0.0 | 0.10 | 1.93 | 0.48 | 95 | 1012.7 |
| 20260904144526 | 12 | 221 | 0.0 | 3.2 | 0.05 | 1.93 | 0.43 | 95 | 1012.5 |
| 20260904143017 | 11 | 226 | 0.0 | 0.0 | 0.10 | 2.01 | 0.41 | 95 | 1012.4 |
| 20260904141526 | 11 | 226 | 0.0 | 3.2 | 0.08 | 2.01 | 0.38 | 95 | 1012.3 |
| 20260904140026 | 11 | 237 | 0.0 | 4.8 | 0.08 | 2.01 | 0.38 | 95 | 1012.1 |
| 20260904134526 | 11 | 225 | 0.0 | 3.2 | 0.08 | 2.03 | 0.38 | 95 | 1011.9 |
| 20260904133025 | 11 | 232 | 1.6 | 4.8 | 0.00 | 1.96 | 0.30 | 95 | 1011.8 |
| 20260904131524 | 11 | 212 | 0.0 | 4.8 | 0.00 | 1.98 | 0.30 | 95 | 1011.8 |
| 20260904130006 | 11 | 220 | 0.0 | 3.2 | 0.00 | 2.03 | 0.30 | 95 | 1011.6 |
| 20260904124510 | 11 | 229 | 3.2 | 4.8 | 0.00 | 2.06 | 0.30 | 95 | 1011.5 |
| 20260904123014 | 11 | 242 | 0.0 | 0.0 | 0.03 | 2.11 | 0.30 | 95 | 1011.5 |
| 20260904121527 | 11 | 241 | 0.0 | 3.2 | 0.03 | 2.18 | 0.30 | 95 | 1011.5 |
| 20260904120037 | 11 | 244 | 0.0 | 1.6 | 0.05 | 2.41 | 0.30 | 95 | 1011.4 |
| 20260904114507 | 11 | 276 | 0.0 | 4.8 | 0.10 | 2.46 | 0.30 | 95 | 1011.3 |
| 20260904113028 | 11 | 241 | 0.0 | 0.0 | 0.13 | 2.49 | 0.28 | 96 | 1011.2 |
| 20260904111524 | 11 | 275 | 0.0 | 0.0 | 0.15 | 2.51 | 0.28 | 96 | 1011.1 |
| 20260904110027 | 11 | 239 | 0.0 | 0.0 | 0.15 | 2.54 | 0.25 | 96 | 1011.2 |
| 20260904104528 | 11 | 239 | 0.0 | 0.0 | 0.13 | 2.49 | 0.20 | 95 | 1011.1 |
| 20260904103008 | 11 | 239 | 0.0 | 0.0 | 0.13 | 2.44 | 0.15 | 95 | 1011.2 |
| 20260904101516 | 11 | 239 | 0.0 | 0.0 | 0.13 | 2.41 | 0.13 | 95 | 1011.0 |
| 20260904100021 | 11 | 246 | 0.0 | 4.8 | 0.10 | 2.39 | 0.10 | 95 | 1010.8 |
| 20260904094526 | 11 | 244 | 0.0 | 3.2 | 0.08 | 2.36 | 0.08 | 95 | 1010.9 |
| 20260904093008 | 11 | 248 | 0.0 | 3.2 | 0.03 | 2.31 | 0.03 | 95 | 1010.7 |
| 20260904091510 | 11 | 242 | 0.0 | 3.2 | 0.00 | 2.29 | 0.00 | 95 | 1010.6 |
| 20260904090019 | 11 | 208 | 0.0 | 4.8 | 0.00 | 2.29 | 0.00 | 95 | 1010.7 |